| time (UTC) | temp C | wind direction | speed KPH | gust KPH | rain 1hr cm | rain 24hr cm | rain mn cm | humidity % | barometer mb |
| 20260903235449 | 8 | 192 | 0.0 | 0.0 | 0.00 | 0.00 | 0.00 | 91 | 1001.6 |
| 20260903234729 | 8 | 192 | 0.0 | 0.0 | 0.00 | 0.00 | 0.00 | 90 | 1001.6 |
| 20260903234228 | 8 | 192 | 0.0 | 0.0 | 0.00 | 0.00 | 0.00 | 90 | 1001.6 |
| 20260903233949 | 8 | 192 | 0.0 | 0.0 | 0.00 | 0.00 | 0.00 | 90 | 1001.6 |
| 20260903233227 | 8 | 192 | 0.0 | 0.0 | 0.00 | 0.00 | 0.00 | 90 | 1001.9 |
| 20260903232950 | 9 | 192 | 0.0 | 0.0 | 0.00 | 0.00 | 0.00 | 90 | 1001.9 |
| 20260903232228 | 9 | 192 | 0.0 | 0.0 | 0.00 | 0.00 | 0.00 | 90 | 1001.9 |
| 20260903231727 | 9 | 192 | 0.0 | 0.0 | 0.00 | 0.00 | 0.00 | 90 | 1001.9 |
| 20260903231227 | 9 | 192 | 0.0 | 0.0 | 0.00 | 0.00 | 0.00 | 90 | 1002.0 |
| 20260903230727 | 9 | 192 | 0.0 | 0.0 | 0.00 | 0.00 | 0.00 | 89 | 1002.0 |
| 20260903230228 | 9 | 192 | 0.0 | 0.0 | 0.00 | 0.00 | 0.00 | 89 | 1002.0 |
| 20260903225727 | 9 | 192 | 0.0 | 0.0 | 0.00 | 0.00 | 0.00 | 89 | 1002.1 |
| 20260903225447 | 9 | 192 | 0.0 | 0.0 | 0.00 | 0.00 | 0.00 | 88 | 1002.1 |
| 20260903224727 | 9 | 192 | 0.0 | 0.0 | 0.00 | 0.00 | 0.00 | 88 | 1002.3 |
| 20260903224227 | 9 | 192 | 0.0 | 0.0 | 0.00 | 0.00 | 0.00 | 88 | 1002.3 |
| 20260903223945 | 10 | 192 | 0.0 | 0.0 | 0.00 | 0.00 | 0.00 | 88 | 1002.4 |
| 20260903223227 | 10 | 192 | 0.0 | 0.0 | 0.00 | 0.00 | 0.00 | 88 | 1002.4 |
| 20260903222726 | 10 | 192 | 0.0 | 0.0 | 0.00 | 0.00 | 0.00 | 87 | 1002.4 |
| 20260903222226 | 10 | 192 | 0.0 | 0.0 | 0.00 | 0.00 | 0.00 | 86 | 1002.5 |
| 20260903221726 | 10 | 192 | 0.0 | 0.0 | 0.00 | 0.00 | 0.00 | 86 | 1002.5 |
| 20260903221227 | 10 | 192 | 0.0 | 0.0 | 0.00 | 0.00 | 0.00 | 86 | 1002.5 |
| 20260903220727 | 10 | 192 | 0.0 | 0.0 | 0.00 | 0.00 | 0.00 | 85 | 1002.5 |
| 20260903220227 | 10 | 192 | 0.0 | 0.0 | 0.00 | 0.00 | 0.00 | 86 | 1002.5 |
| 20260903215946 | 10 | 192 | 0.0 | 0.0 | 0.00 | 0.00 | 0.00 | 85 | 1002.6 |
| 20260903215447 | 10 | 192 | 0.0 | 0.0 | 0.00 | 0.00 | 0.00 | 84 | 1002.5 |
| 20260903214945 | 10 | 192 | 0.0 | 0.0 | 0.00 | 0.00 | 0.00 | 84 | 1002.6 |
| 20260903214226 | 10 | 192 | 0.0 | 0.0 | 0.00 | 0.00 | 0.00 | 84 | 1002.6 |
| 20260903213726 | 10 | 192 | 0.0 | 0.0 | 0.00 | 0.00 | 0.00 | 84 | 1002.6 |
| 20260903213226 | 10 | 192 | 0.0 | 0.0 | 0.00 | 0.00 | 0.00 | 83 | 1002.7 |
| 20260903212725 | 10 | 192 | 0.0 | 0.0 | 0.00 | 0.00 | 0.00 | 83 | 1002.7 |
| 20260903212226 | 10 | 192 | 0.0 | 0.0 | 0.00 | 0.00 | 0.00 | 83 | 1002.8 |
| 20260903211725 | 10 | 192 | 0.0 | 0.0 | 0.00 | 0.00 | 0.00 | 83 | 1002.9 |
| 20260903211225 | 10 | 192 | 0.0 | 0.0 | 0.00 | 0.00 | 0.00 | 82 | 1002.8 |
| 20260903210944 | 10 | 192 | 0.0 | 0.0 | 0.00 | 0.00 | 0.00 | 81 | 1002.9 |
| 20260903210225 | 10 | 192 | 0.0 | 0.0 | 0.00 | 0.00 | 0.00 | 81 | 1003.0 |
| 20260903205725 | 10 | 192 | 0.0 | 0.0 | 0.00 | 0.00 | 0.00 | 81 | 1003.0 |
| 20260903205226 | 11 | 192 | 0.0 | 0.0 | 0.00 | 0.00 | 0.00 | 81 | 1003.0 |
| 20260903204725 | 11 | 192 | 0.0 | 3.2 | 0.00 | 0.00 | 0.00 | 80 | 1002.9 |
| 20260903204226 | 11 | 192 | 0.0 | 3.2 | 0.00 | 0.00 | 0.00 | 81 | 1003.1 |
| 20260903203725 | 11 | 192 | 1.6 | 3.2 | 0.00 | 0.00 | 0.00 | 81 | 1003.1 |
| 20260903203226 | 11 | 192 | 0.0 | 0.0 | 0.00 | 0.00 | 0.00 | 79 | 1003.2 |
| 20260903202725 | 11 | 192 | 0.0 | 0.0 | 0.00 | 0.00 | 0.00 | 79 | 1003.3 |
| 20260903202225 | 11 | 192 | 0.0 | 0.0 | 0.00 | 0.00 | 0.00 | 78 | 1003.3 |
| 20260903201725 | 11 | 192 | 0.0 | 0.0 | 0.00 | 0.00 | 0.00 | 78 | 1003.3 |
| 20260903201442 | 11 | 192 | 0.0 | 1.6 | 0.00 | 0.00 | 0.00 | 77 | 1003.5 |
| 20260903200725 | 11 | 192 | 0.0 | 1.6 | 0.00 | 0.00 | 0.00 | 77 | 1003.4 |
| 20260903200224 | 11 | 192 | 0.0 | 0.0 | 0.00 | 0.00 | 0.00 | 76 | 1003.5 |
| 20260903200207 | 12 | 192 | 0.0 | 0.0 | 0.00 | 0.00 | 0.00 | 76 | 1003.5 |
| 20260903195225 | 12 | 192 | 0.0 | 0.0 | 0.00 | 0.00 | 0.00 | 76 | 1003.6 |
| 20260903194725 | 12 | 192 | 0.0 | 0.0 | 0.00 | 0.00 | 0.00 | 74 | 1003.7 |
| 20260903194225 | 12 | 192 | 0.0 | 1.6 | 0.00 | 0.00 | 0.00 | 74 | 1003.7 |
| 20260903193725 | 12 | 192 | 0.0 | 1.6 | 0.00 | 0.00 | 0.00 | 74 | 1003.7 |
| 20260903193449 | 12 | 192 | 0.0 | 1.6 | 0.00 | 0.00 | 0.00 | 74 | 1003.7 |
| 20260903192945 | 12 | 192 | 0.0 | 1.6 | 0.00 | 0.00 | 0.00 | 74 | 1003.8 |
| 20260903192224 | 12 | 192 | 0.0 | 1.6 | 0.00 | 0.00 | 0.00 | 74 | 1003.8 |
| 20260903191724 | 12 | 192 | 0.0 | 0.0 | 0.00 | 0.00 | 0.00 | 74 | 1003.8 |
| 20260903191224 | 12 | 192 | 0.0 | 0.0 | 0.00 | 0.00 | 0.00 | 74 | 1003.9 |
| 20260903190940 | 13 | 192 | 0.0 | 0.0 | 0.00 | 0.00 | 0.00 | 73 | 1003.9 |
| 20260903190223 | 13 | 192 | 0.0 | 0.0 | 0.00 | 0.00 | 0.00 | 74 | 1004.0 |
| 20260903185723 | 13 | 192 | 0.0 | 1.6 | 0.00 | 0.00 | 0.00 | 74 | 1004.0 |
| 20260903185224 | 13 | 192 | 0.0 | 1.6 | 0.00 | 0.00 | 0.00 | 73 | 1004.0 |
| 20260903184723 | 13 | 192 | 0.0 | 1.6 | 0.00 | 0.00 | 0.00 | 73 | 1004.0 |
| 20260903184223 | 13 | 192 | 0.0 | 1.6 | 0.00 | 0.00 | 0.00 | 72 | 1004.0 |
| 20260903183723 | 13 | 192 | 0.0 | 0.0 | 0.00 | 0.00 | 0.00 | 71 | 1004.0 |
| 20260903183223 | 14 | 192 | 0.0 | 3.2 | 0.00 | 0.00 | 0.00 | 70 | 1004.0 |
| 20260903182723 | 14 | 192 | 0.0 | 3.2 | 0.00 | 0.00 | 0.00 | 70 | 1004.2 |
| 20260903182224 | 14 | 299 | 0.0 | 0.0 | 0.00 | 0.00 | 0.00 | 69 | 1004.2 |
| 20260903181944 | 15 | 299 | 0.0 | 1.6 | 0.00 | 0.00 | 0.00 | 68 | 1004.2 |
| 20260903181444 | 15 | 299 | 0.0 | 1.6 | 0.00 | 0.00 | 0.00 | 67 | 1004.2 |
| 20260903180722 | 15 | 299 | 0.0 | 0.0 | 0.00 | 0.00 | 0.00 | 66 | 1004.2 |
| 20260903180221 | 15 | 299 | 0.0 | 0.0 | 0.00 | 0.00 | 0.00 | 65 | 1004.3 |
| 20260903175721 | 15 | 299 | 0.0 | 4.8 | 0.00 | 0.00 | 0.00 | 65 | 1004.2 |
| 20260903175221 | 16 | 300 | 0.0 | 4.8 | 0.00 | 0.00 | 0.00 | 64 | 1004.2 |
| 20260903174721 | 16 | 320 | 1.6 | 3.2 | 0.00 | 0.00 | 0.00 | 64 | 1004.3 |
| 20260903174222 | 16 | 320 | 1.6 | 8.0 | 0.00 | 0.00 | 0.00 | 63 | 1004.2 |
| 20260903173722 | 16 | 233 | 1.6 | 8.0 | 0.00 | 0.00 | 0.00 | 63 | 1004.2 |
| 20260903173443 | 16 | 320 | 3.2 | 6.4 | 0.00 | 0.00 | 0.00 | 62 | 1004.2 |
| 20260903172722 | 16 | 285 | 1.6 | 9.7 | 0.00 | 0.00 | 0.00 | 62 | 1004.2 |
| 20260903172222 | 16 | 281 | 3.2 | 9.7 | 0.00 | 0.00 | 0.00 | 61 | 1004.2 |
| 20260903171721 | 17 | 250 | 3.2 | 9.7 | 0.00 | 0.00 | 0.00 | 61 | 1004.2 |
| 20260903171221 | 17 | 312 | 3.2 | 8.0 | 0.00 | 0.00 | 0.00 | 60 | 1004.3 |
| 20260903170721 | 17 | 264 | 3.2 | 11.3 | 0.00 | 0.00 | 0.00 | 60 | 1004.3 |
| 20260903170445 | 17 | 266 | 4.8 | 11.3 | 0.00 | 0.00 | 0.00 | 60 | 1004.2 |
| 20260903165720 | 17 | 269 | 6.4 | 11.3 | 0.00 | 0.00 | 0.00 | 59 | 1004.2 |
| 20260903165221 | 17 | 283 | 3.2 | 11.3 | 0.00 | 0.00 | 0.00 | 60 | 1004.2 |
| 20260903164720 | 18 | 243 | 3.2 | 9.7 | 0.00 | 0.00 | 0.00 | 60 | 1004.1 |
| 20260903164221 | 18 | 274 | 6.4 | 9.7 | 0.00 | 0.00 | 0.00 | 59 | 1004.2 |
| 20260903163721 | 18 | 282 | 3.2 | 9.7 | 0.00 | 0.00 | 0.00 | 59 | 1004.1 |
| 20260903163221 | 18 | 258 | 3.2 | 17.7 | 0.00 | 0.00 | 0.00 | 60 | 1004.1 |
| 20260903162721 | 18 | 323 | 3.2 | 17.7 | 0.00 | 0.00 | 0.00 | 60 | 1004.2 |
| 20260903162220 | 18 | 241 | 3.2 | 19.3 | 0.00 | 0.00 | 0.00 | 59 | 1004.1 |
| 20260903161720 | 18 | 262 | 6.4 | 19.3 | 0.00 | 0.00 | 0.00 | 59 | 1004.1 |
| 20260903161220 | 18 | 283 | 4.8 | 16.1 | 0.00 | 0.00 | 0.00 | 58 | 1004.0 |
| 20260903160720 | 18 | 275 | 3.2 | 16.1 | 0.00 | 0.00 | 0.00 | 57 | 1004.1 |
| 20260903160220 | 18 | 261 | 6.4 | 9.7 | 0.00 | 0.00 | 0.00 | 56 | 1004.1 |
| 20260903155948 | 18 | 245 | 4.8 | 17.7 | 0.00 | 0.00 | 0.00 | 56 | 1004.1 |
| 20260903155221 | 19 | 293 | 6.4 | 17.7 | 0.00 | 0.00 | 0.00 | 55 | 1004.1 |
| 20260903154721 | 19 | 258 | 4.8 | 16.1 | 0.00 | 0.00 | 0.00 | 55 | 1004.2 |
| 20260903154221 | 18 | 292 | 4.8 | 9.7 | 0.00 | 0.00 | 0.00 | 54 | 1004.2 |
| 20260903153721 | 18 | 235 | 4.8 | 9.7 | 0.00 | 0.00 | 0.00 | 52 | 1004.3 |
| 20260903153220 | 19 | 296 | 3.2 | 9.7 | 0.00 | 0.00 | 0.00 | 52 | 1004.3 |
| 20260903152721 | 20 | 252 | 3.2 | 14.5 | 0.00 | 0.00 | 0.00 | 51 | 1004.3 |
| 20260903152219 | 20 | 276 | 3.2 | 19.3 | 0.00 | 0.00 | 0.00 | 49 | 1004.3 |
| 20260903151720 | 20 | 300 | 8.0 | 19.3 | 0.00 | 0.00 | 0.00 | 49 | 1004.4 |
| 20260903151220 | 20 | 250 | 8.0 | 14.5 | 0.00 | 0.00 | 0.00 | 51 | 1004.4 |
| 20260903150719 | 20 | 176 | 4.8 | 11.3 | 0.00 | 0.00 | 0.00 | 50 | 1004.4 |
| 20260903150218 | 20 | 286 | 4.8 | 14.5 | 0.00 | 0.00 | 0.00 | 50 | 1004.4 |
| 20260903145724 | 20 | 217 | 4.8 | 19.3 | 0.00 | 0.00 | 0.00 | 51 | 1004.3 |
| 20260903145720 | 20 | 275 | 4.8 | 14.5 | 0.00 | 0.00 | 0.00 | 50 | 1004.4 |
| 20260903144718 | 19 | 283 | 9.7 | 19.3 | 0.00 | 0.00 | 0.00 | 50 | 1004.3 |
| 20260903144707 | 20 | 283 | 9.7 | 14.5 | 0.00 | 0.00 | 0.00 | 49 | 1004.4 |
| 20260903143718 | 20 | 240 | 8.0 | 19.3 | 0.00 | 0.00 | 0.00 | 50 | 1004.4 |
| 20260903143218 | 19 | 276 | 6.4 | 19.3 | 0.00 | 0.00 | 0.00 | 50 | 1004.3 |
| 20260903142719 | 19 | 295 | 9.7 | 17.7 | 0.00 | 0.00 | 0.00 | 50 | 1004.5 |
| 20260903142445 | 19 | 254 | 6.4 | 11.3 | 0.00 | 0.00 | 0.00 | 51 | 1004.4 |
| 20260903141720 | 20 | 220 | 6.4 | 16.1 | 0.00 | 0.00 | 0.00 | 50 | 1004.5 |
| 20260903141219 | 20 | 314 | 4.8 | 17.7 | 0.00 | 0.00 | 0.00 | 52 | 1004.5 |
| 20260903140718 | 20 | 275 | 8.0 | 17.7 | 0.00 | 0.00 | 0.00 | 52 | 1004.6 |
| 20260903140219 | 19 | 234 | 8.0 | 14.5 | 0.00 | 0.00 | 0.00 | 53 | 1004.6 |
| 20260903135718 | 19 | 264 | 6.4 | 17.7 | 0.00 | 0.00 | 0.00 | 53 | 1004.7 |
| 20260903135218 | 19 | 296 | 9.7 | 24.1 | 0.00 | 0.00 | 0.00 | 53 | 1004.7 |
| 20260903134718 | 19 | 240 | 12.9 | 24.1 | 0.00 | 0.00 | 0.00 | 51 | 1004.8 |
| 20260903134218 | 19 | 288 | 12.9 | 17.7 | 0.00 | 0.00 | 0.00 | 52 | 1004.7 |
| 20260903133941 | 20 | 283 | 6.4 | 19.3 | 0.00 | 0.00 | 0.00 | 53 | 1004.8 |
| 20260903133219 | 19 | 275 | 8.0 | 19.3 | 0.00 | 0.00 | 0.00 | 52 | 1004.8 |
| 20260903132937 | 19 | 281 | 8.0 | 17.7 | 0.00 | 0.00 | 0.00 | 52 | 1004.8 |
| 20260903132217 | 19 | 252 | 6.4 | 17.7 | 0.00 | 0.00 | 0.00 | 53 | 1004.8 |
| 20260903131718 | 19 | 330 | 9.7 | 24.1 | 0.00 | 0.00 | 0.00 | 52 | 1004.9 |
| 20260903131413 | 18 | 228 | 9.7 | 24.1 | 0.00 | 0.00 | 0.00 | 53 | 1004.9 |
| 20260903130218 | 18 | 257 | 4.8 | 19.3 | 0.00 | 0.00 | 0.00 | 53 | 1004.9 |
| 20260903125716 | 18 | 296 | 8.0 | 19.3 | 0.00 | 0.00 | 0.00 | 53 | 1004.9 |
| 20260903125216 | 19 | 278 | 9.7 | 16.1 | 0.00 | 0.00 | 0.00 | 51 | 1004.9 |
| 20260903124716 | 19 | 243 | 6.4 | 20.9 | 0.00 | 0.00 | 0.00 | 53 | 1004.9 |
| 20260903124216 | 18 | 290 | 11.3 | 20.9 | 0.00 | 0.00 | 0.00 | 53 | 1004.9 |
| 20260903123716 | 18 | 281 | 6.4 | 17.7 | 0.00 | 0.00 | 0.00 | 54 | 1004.9 |
| 20260903123216 | 18 | 303 | 8.0 | 19.3 | 0.00 | 0.00 | 0.00 | 53 | 1005.0 |
| 20260903122715 | 18 | 265 | 11.3 | 19.3 | 0.00 | 0.00 | 0.00 | 53 | 1005.0 |
| 20260903122216 | 18 | 305 | 9.7 | 19.3 | 0.00 | 0.00 | 0.00 | 55 | 1005.0 |
| 20260903121715 | 18 | 255 | 9.7 | 25.7 | 0.00 | 0.00 | 0.00 | 54 | 1005.1 |
| 20260903121215 | 18 | 279 | 14.5 | 25.7 | 0.00 | 0.00 | 0.00 | 54 | 1005.2 |
| 20260903121201 | 18 | 295 | 8.0 | 19.3 | 0.00 | 0.00 | 0.00 | 56 | 1005.1 |
| 20260903120215 | 18 | 309 | 11.3 | 19.3 | 0.00 | 0.00 | 0.00 | 55 | 1005.2 |
| 20260903115715 | 18 | 295 | 8.0 | 22.5 | 0.00 | 0.00 | 0.00 | 55 | 1005.2 |
| 20260903115215 | 18 | 286 | 14.5 | 22.5 | 0.00 | 0.00 | 0.00 | 55 | 1005.3 |
| 20260903114715 | 18 | 319 | 9.7 | 20.9 | 0.00 | 0.00 | 0.00 | 56 | 1005.2 |
| 20260903114214 | 18 | 144 | 9.7 | 19.3 | 0.00 | 0.00 | 0.00 | 56 | 1005.1 |
| 20260903113715 | 18 | 306 | 9.7 | 19.3 | 0.00 | 0.00 | 0.00 | 57 | 1005.2 |
| 20260903113214 | 17 | 272 | 8.0 | 17.7 | 0.00 | 0.00 | 0.00 | 58 | 1005.2 |
| 20260903112714 | 17 | 309 | 9.7 | 19.3 | 0.00 | 0.00 | 0.00 | 57 | 1005.2 |
| 20260903112214 | 17 | 274 | 9.7 | 20.9 | 0.00 | 0.00 | 0.00 | 57 | 1005.2 |
| 20260903111714 | 17 | 288 | 11.3 | 20.9 | 0.00 | 0.00 | 0.00 | 57 | 1005.3 |
| 20260903111214 | 17 | 285 | 9.7 | 19.3 | 0.00 | 0.00 | 0.00 | 59 | 1005.5 |
| 20260903110713 | 17 | 281 | 9.7 | 16.1 | 0.00 | 0.00 | 0.00 | 58 | 1005.4 |
| 20260903110213 | 17 | 303 | 9.7 | 25.7 | 0.00 | 0.00 | 0.00 | 57 | 1005.5 |
| 20260903105714 | 17 | 237 | 9.7 | 25.7 | 0.00 | 0.00 | 0.00 | 58 | 1005.5 |
| 20260903105214 | 17 | 286 | 11.3 | 22.5 | 0.00 | 0.00 | 0.00 | 58 | 1005.5 |
| 20260903104713 | 17 | 275 | 12.9 | 25.7 | 0.00 | 0.00 | 0.00 | 59 | 1005.6 |
| 20260903104213 | 17 | 278 | 17.7 | 25.7 | 0.00 | 0.00 | 0.00 | 58 | 1005.6 |
| 20260903103713 | 17 | 271 | 8.0 | 22.5 | 0.00 | 0.00 | 0.00 | 59 | 1005.6 |
| 20260903103213 | 17 | 240 | 14.5 | 22.5 | 0.00 | 0.00 | 0.00 | 59 | 1005.7 |
| 20260903102713 | 17 | 241 | 6.4 | 20.9 | 0.00 | 0.00 | 0.00 | 59 | 1005.7 |
| 20260903102213 | 17 | 283 | 6.4 | 19.3 | 0.00 | 0.00 | 0.00 | 61 | 1005.7 |
| 20260903101713 | 16 | 278 | 6.4 | 20.9 | 0.00 | 0.00 | 0.00 | 62 | 1005.7 |
| 20260903101438 | 16 | 255 | 11.3 | 20.9 | 0.00 | 0.00 | 0.00 | 61 | 1005.7 |
| 20260903100936 | 16 | 323 | 11.3 | 22.5 | 0.00 | 0.00 | 0.00 | 63 | 1005.7 |
| 20260903100213 | 16 | 320 | 11.3 | 22.5 | 0.00 | 0.00 | 0.00 | 62 | 1005.6 |
| 20260903095712 | 16 | 275 | 8.0 | 14.5 | 0.00 | 0.00 | 0.00 | 61 | 1005.6 |
| 20260903095657 | 16 | 188 | 6.4 | 16.1 | 0.00 | 0.00 | 0.00 | 63 | 1005.7 |
| 20260903094712 | 16 | 258 | 6.4 | 17.7 | 0.00 | 0.00 | 0.00 | 63 | 1005.7 |
| 20260903094212 | 16 | 251 | 11.3 | 22.5 | 0.00 | 0.00 | 0.00 | 62 | 1005.7 |
| 20260903093712 | 16 | 234 | 12.9 | 22.5 | 0.00 | 0.00 | 0.00 | 63 | 1005.6 |
| 20260903093212 | 16 | 275 | 9.7 | 19.3 | 0.00 | 0.00 | 0.00 | 62 | 1005.7 |
| 20260903092712 | 16 | 282 | 6.4 | 19.3 | 0.00 | 0.00 | 0.00 | 63 | 1005.7 |
| 20260903092211 | 16 | 269 | 9.7 | 20.9 | 0.00 | 0.00 | 0.00 | 61 | 1005.7 |
| 20260903091711 | 16 | 299 | 9.7 | 20.9 | 0.00 | 0.00 | 0.00 | 63 | 1005.9 |
| 20260903091211 | 16 | 278 | 3.2 | 20.9 | 0.00 | 0.00 | 0.00 | 65 | 1005.8 |
| 20260903090934 | 15 | 298 | 11.3 | 20.9 | 0.00 | 0.00 | 0.00 | 62 | 1005.9 |
| 20260903090211 | 15 | 269 | 8.0 | 24.1 | 0.00 | 0.00 | 0.00 | 63 | 1005.9 |
| 20260903085711 | 15 | 289 | 12.9 | 24.1 | 0.00 | 0.00 | 0.00 | 62 | 1005.9 |
| 20260903085211 | 15 | 289 | 8.0 | 14.5 | 0.00 | 0.00 | 0.00 | 64 | 1005.8 |
| 20260903084710 | 15 | 247 | 8.0 | 16.1 | 0.00 | 0.00 | 0.00 | 65 | 1005.9 |
| 20260903084211 | 15 | 296 | 6.4 | 20.9 | 0.00 | 0.00 | 0.00 | 66 | 1006.0 |
| 20260903083710 | 15 | 298 | 11.3 | 20.9 | 0.00 | 0.00 | 0.00 | 67 | 1005.9 |
| 20260903083211 | 15 | 274 | 9.7 | 20.9 | 0.00 | 0.00 | 0.00 | 67 | 1005.9 |
| 20260903082710 | 15 | 286 | 11.3 | 22.5 | 0.00 | 0.00 | 0.00 | 67 | 1005.9 |
| 20260903082436 | 15 | 276 | 9.7 | 22.5 | 0.00 | 0.00 | 0.00 | 67 | 1006.0 |
| 20260903081710 | 15 | 309 | 12.9 | 25.7 | 0.00 | 0.00 | 0.00 | 67 | 1005.9 |
| 20260903081210 | 15 | 243 | 14.5 | 25.7 | 0.00 | 0.00 | 0.00 | 67 | 1005.8 |
| 20260903080710 | 15 | 241 | 9.7 | 17.7 | 0.00 | 0.00 | 0.00 | 69 | 1005.9 |
| 20260903080438 | 15 | 283 | 12.9 | 17.7 | 0.00 | 0.00 | 0.00 | 69 | 1005.8 |
| 20260903075710 | 15 | 254 | 9.7 | 22.5 | 0.00 | 0.00 | 0.00 | 70 | 1005.9 |
| 20260903075210 | 14 | 288 | 11.3 | 24.1 | 0.00 | 0.00 | 0.00 | 70 | 1005.9 |
| 20260903074935 | 14 | 334 | 12.9 | 24.1 | 0.00 | 0.00 | 0.00 | 71 | 1005.9 |
| 20260903074209 | 14 | 303 | 14.5 | 24.1 | 0.00 | 0.00 | 0.00 | 71 | 1005.9 |
| 20260903073709 | 14 | 282 | 11.3 | 30.6 | 0.00 | 0.00 | 0.00 | 72 | 1006.0 |
| 20260903073210 | 14 | 300 | 17.7 | 30.6 | 0.00 | 0.00 | 0.00 | 71 | 1006.0 |
| 20260903072709 | 14 | 290 | 16.1 | 30.6 | 0.00 | 0.00 | 0.00 | 72 | 1005.9 |
| 20260903072209 | 14 | 351 | 14.5 | 25.7 | 0.00 | 0.00 | 0.00 | 74 | 1005.9 |
| 20260903071939 | 14 | 288 | 14.5 | 25.7 | 0.00 | 0.00 | 0.00 | 74 | 1005.9 |
| 20260903071209 | 14 | 310 | 14.5 | 30.6 | 0.00 | 0.00 | 0.00 | 75 | 1005.8 |
| 20260903070708 | 14 | 238 | 11.3 | 30.6 | 0.00 | 0.00 | 0.00 | 75 | 1005.9 |
| 20260903070430 | 14 | 286 | 12.9 | 25.7 | 0.00 | 0.00 | 0.00 | 76 | 1006.0 |
| 20260903065708 | 13 | 240 | 11.3 | 25.7 | 0.00 | 0.00 | 0.00 | 76 | 1006.0 |
| 20260903065207 | 13 | 302 | 12.9 | 29.0 | 0.00 | 0.00 | 0.00 | 77 | 1006.0 |
| 20260903064707 | 13 | 268 | 17.7 | 29.0 | 0.00 | 0.00 | 0.00 | 79 | 1006.1 |
| 20260903064207 | 13 | 305 | 14.5 | 25.7 | 0.00 | 0.00 | 0.00 | 79 | 1006.1 |
| 20260903063707 | 13 | 271 | 12.9 | 25.7 | 0.00 | 0.00 | 0.00 | 79 | 1006.1 |
| 20260903063207 | 13 | 285 | 8.0 | 22.5 | 0.00 | 0.00 | 0.00 | 81 | 1006.0 |
| 20260903062707 | 13 | 293 | 11.3 | 22.5 | 0.00 | 0.00 | 0.00 | 81 | 1006.0 |
| 20260903062647 | 13 | 289 | 9.7 | 22.5 | 0.00 | 0.00 | 0.00 | 82 | 1006.0 |
| 20260903061706 | 13 | 254 | 14.5 | 22.5 | 0.00 | 0.00 | 0.00 | 82 | 1006.0 |
| 20260903061426 | 12 | 292 | 8.0 | 16.1 | 0.00 | 0.00 | 0.00 | 82 | 1006.1 |
| 20260903060707 | 12 | 292 | 8.0 | 17.7 | 0.00 | 0.00 | 0.00 | 83 | 1006.1 |
| 20260903060206 | 12 | 266 | 8.0 | 17.7 | 0.00 | 0.00 | 0.00 | 83 | 1006.1 |
| 20260903055706 | 12 | 306 | 11.3 | 19.3 | 0.00 | 0.00 | 0.00 | 83 | 1006.1 |
| 20260903055207 | 12 | 278 | 6.4 | 19.3 | 0.00 | 0.00 | 0.00 | 84 | 1006.1 |
| 20260903054706 | 12 | 275 | 11.3 | 19.3 | 0.00 | 0.00 | 0.00 | 84 | 1006.0 |
| 20260903054206 | 12 | 303 | 11.3 | 16.1 | 0.00 | 0.00 | 0.00 | 84 | 1006.1 |
| 20260903053705 | 12 | 276 | 8.0 | 17.7 | 0.00 | 0.00 | 0.00 | 85 | 1006.0 |
| 20260903053205 | 12 | 299 | 9.7 | 17.7 | 0.00 | 0.00 | 0.00 | 86 | 1006.1 |
| 20260903052705 | 11 | 279 | 4.8 | 11.3 | 0.00 | 0.00 | 0.00 | 87 | 1006.1 |
| 20260903052205 | 11 | 265 | 1.6 | 11.3 | 0.00 | 0.00 | 0.00 | 87 | 1006.1 |
| 20260903051705 | 11 | 266 | 3.2 | 9.7 | 0.00 | 0.00 | 0.00 | 88 | 1006.1 |
| 20260903051204 | 11 | 296 | 4.8 | 9.7 | 0.00 | 0.00 | 0.00 | 88 | 1006.2 |
| 20260903050705 | 11 | 283 | 3.2 | 8.0 | 0.00 | 0.00 | 0.00 | 89 | 1006.1 |
| 20260903050205 | 10 | 266 | 3.2 | 8.0 | 0.00 | 0.00 | 0.00 | 90 | 1006.1 |
| 20260903045706 | 10 | 258 | 3.2 | 8.0 | 0.00 | 0.00 | 0.00 | 90 | 1006.1 |
| 20260903045205 | 10 | 247 | 3.2 | 4.8 | 0.00 | 0.00 | 0.00 | 90 | 1006.1 |
| 20260903044706 | 10 | 283 | 3.2 | 4.8 | 0.00 | 0.00 | 0.00 | 90 | 1006.1 |
| 20260903044206 | 10 | 283 | 1.6 | 4.8 | 0.00 | 0.00 | 0.00 | 90 | 1006.1 |
| 20260903043926 | 10 | 261 | 0.0 | 6.4 | 0.00 | 0.00 | 0.00 | 90 | 1006.2 |
| 20260903043205 | 10 | 303 | 3.2 | 6.4 | 0.00 | 0.00 | 0.00 | 90 | 1006.1 |
| 20260903042706 | 10 | 226 | 0.0 | 3.2 | 0.00 | 0.00 | 0.00 | 90 | 1006.3 |
| 20260903042206 | 10 | 210 | 0.0 | 3.2 | 0.00 | 0.00 | 0.00 | 90 | 1006.3 |
| 20260903041705 | 10 | 250 | 0.0 | 1.6 | 0.00 | 0.00 | 0.00 | 90 | 1006.3 |
| 20260903041205 | 10 | 250 | 0.0 | 4.8 | 0.00 | 0.00 | 0.00 | 90 | 1006.3 |
| 20260903040705 | 10 | 252 | 0.0 | 6.4 | 0.00 | 0.00 | 0.00 | 89 | 1006.4 |
| 20260903040205 | 10 | 243 | 1.6 | 6.4 | 0.00 | 0.00 | 0.00 | 89 | 1006.4 |
| 20260903035704 | 10 | 259 | 1.6 | 4.8 | 0.00 | 0.00 | 0.00 | 89 | 1006.4 |
| 20260903035205 | 10 | 282 | 0.0 | 1.6 | 0.00 | 0.00 | 0.00 | 89 | 1006.4 |
| 20260903034705 | 10 | 282 | 1.6 | 1.6 | 0.00 | 0.00 | 0.00 | 88 | 1006.5 |
| 20260903034204 | 10 | 282 | 0.0 | 1.6 | 0.00 | 0.00 | 0.00 | 88 | 1006.5 |
| 20260903033706 | 10 | 282 | 0.0 | 1.6 | 0.00 | 0.00 | 0.00 | 87 | 1006.5 |
| 20260903033428 | 10 | 282 | 0.0 | 1.6 | 0.00 | 0.00 | 0.00 | 87 | 1006.5 |
| 20260903032705 | 10 | 282 | 0.0 | 1.6 | 0.00 | 0.00 | 0.00 | 87 | 1006.5 |
| 20260903032203 | 10 | 282 | 0.0 | 1.6 | 0.00 | 0.00 | 0.00 | 86 | 1006.5 |
| 20260903031920 | 10 | 282 | 0.0 | 3.2 | 0.00 | 0.00 | 0.00 | 87 | 1006.4 |
| 20260903031411 | 10 | 282 | 0.0 | 3.2 | 0.00 | 0.00 | 0.00 | 87 | 1006.5 |
| 20260903030203 | 10 | 282 | 0.0 | 1.6 | 0.00 | 0.00 | 0.00 | 86 | 1006.5 |
| 20260903025925 | 10 | 282 | 0.0 | 0.0 | 0.00 | 0.00 | 0.00 | 86 | 1006.6 |
| 20260903025204 | 10 | 282 | 0.0 | 3.2 | 0.00 | 0.00 | 0.00 | 86 | 1006.6 |
| 20260903024704 | 10 | 282 | 0.0 | 4.8 | 0.00 | 0.00 | 0.00 | 86 | 1006.6 |
| 20260903024204 | 10 | 251 | 1.6 | 4.8 | 0.00 | 0.00 | 0.00 | 86 | 1006.7 |
| 20260903023705 | 10 | 235 | 1.6 | 3.2 | 0.00 | 0.00 | 0.00 | 86 | 1006.6 |
| 20260903023205 | 10 | 235 | 0.0 | 0.0 | 0.00 | 0.00 | 0.00 | 86 | 1006.6 |
| 20260903022701 | 10 | 235 | 0.0 | 0.0 | 0.00 | 0.00 | 0.00 | 85 | 1006.6 |
| 20260903022201 | 11 | 235 | 0.0 | 1.6 | 0.00 | 0.00 | 0.00 | 84 | 1006.6 |
| 20260903021702 | 11 | 235 | 0.0 | 3.2 | 0.00 | 0.00 | 0.00 | 84 | 1006.6 |
| 20260903021204 | 11 | 235 | 0.0 | 3.2 | 0.00 | 0.00 | 0.00 | 84 | 1006.7 |
| 20260903020703 | 11 | 266 | 0.0 | 3.2 | 0.00 | 0.00 | 0.00 | 84 | 1006.7 |
| 20260903020202 | 11 | 266 | 1.6 | 1.6 | 0.00 | 0.00 | 0.00 | 84 | 1006.7 |
| 20260903015703 | 11 | 266 | 0.0 | 3.2 | 0.00 | 0.00 | 0.00 | 83 | 1006.7 |
| 20260903015202 | 11 | 276 | 1.6 | 3.2 | 0.00 | 0.00 | 0.00 | 83 | 1006.9 |
| 20260903014702 | 11 | 278 | 1.6 | 4.8 | 0.00 | 0.00 | 0.00 | 83 | 1006.8 |
| 20260903014202 | 11 | 281 | 3.2 | 6.4 | 0.00 | 0.00 | 0.00 | 83 | 1006.9 |
| 20260903013702 | 11 | 274 | 3.2 | 6.4 | 0.00 | 0.00 | 0.00 | 83 | 1006.9 |
| 20260903013202 | 11 | 289 | 1.6 | 6.4 | 0.00 | 0.00 | 0.00 | 82 | 1006.9 |
| 20260903012923 | 11 | 272 | 3.2 | 8.0 | 0.00 | 0.00 | 0.00 | 82 | 1006.9 |
| 20260903012420 | 11 | 288 | 1.6 | 8.0 | 0.00 | 0.00 | 0.00 | 82 | 1007.0 |
| 20260903011701 | 11 | 279 | 3.2 | 6.4 | 0.00 | 0.00 | 0.00 | 82 | 1007.0 |
| 20260903011201 | 11 | 245 | 1.6 | 4.8 | 0.00 | 0.00 | 0.00 | 81 | 1007.0 |
| 20260903010920 | 11 | 276 | 0.0 | 4.8 | 0.00 | 0.00 | 0.00 | 81 | 1007.0 |
| 20260903010202 | 11 | 250 | 0.0 | 6.4 | 0.00 | 0.00 | 0.00 | 80 | 1007.0 |
| 20260903005701 | 11 | 231 | 1.6 | 9.7 | 0.00 | 0.00 | 0.00 | 80 | 1007.1 |
| 20260903005201 | 11 | 230 | 3.2 | 9.7 | 0.00 | 0.00 | 0.00 | 80 | 1007.1 |
| 20260903004701 | 11 | 241 | 1.6 | 4.8 | 0.00 | 0.00 | 0.00 | 79 | 1007.2 |
| 20260903004200 | 12 | 275 | 3.2 | 4.8 | 0.00 | 0.00 | 0.00 | 79 | 1007.2 |
| 20260903003701 | 12 | 288 | 3.2 | 4.8 | 0.00 | 0.00 | 0.00 | 79 | 1007.2 |
| 20260903003200 | 12 | 247 | 3.2 | 6.4 | 0.00 | 0.00 | 0.00 | 79 | 1007.2 |
| 20260903002700 | 12 | 264 | 3.2 | 6.4 | 0.00 | 0.00 | 0.00 | 79 | 1007.2 |
| 20260903002200 | 12 | 257 | 3.2 | 6.4 | 0.00 | 0.00 | 0.00 | 78 | 1007.2 |
| 20260903001700 | 12 | 271 | 3.2 | 8.0 | 0.00 | 0.00 | 0.00 | 78 | 1007.3 |
| 20260903001200 | 12 | 252 | 3.2 | 8.0 | 0.00 | 0.00 | 0.00 | 77 | 1007.3 |
| 20260903000700 | 12 | 272 | 1.6 | 4.8 | 0.00 | 0.00 | 0.00 | 77 | 1007.3 |
| 20260903000200 | 12 | 274 | 1.6 | 4.8 | 0.00 | 0.00 | 0.00 | 76 | 1007.3 |
| 20260902235659 | 12 | 264 | 1.6 | 11.3 | 0.00 | 0.00 | 0.00 | 76 | 1007.3 |